Regional Weather Roundup
Issued by NWS

Home | Current Version | Previous Version | Graphics & Text | Print | Product List | Glossary On
Versions: 1 2 3 4 5 6 7 8 9 10 11 12 13 14 15 16 17 18 19 20 21 22 23 24 25 26 27 28 29 30 31 32 33 34 35 36 37 38 39 40 41 42 43 44 45 46 47 48 49 50
535
ASUS45 KPSR 211010
RWRAZ

ARIZONA HOURLY REGIONAL WEATHER ROUNDUP
NATIONAL WEATHER SERVICE PHOENIX AZ
300 AM MST WED FEB 21 2018

NOTE: FAIR INDICATES FEW OR NO CLOUDS BELOW 12,000 FEET WITH NO
SIGNIFICANT WEATHER AND/OR OBSTRUCTIONS TO VISIBILITY.

AZZ001>003-036-211100-
NORTHWEST ARIZONA

CITY           SKY/WX    TMP DP  RH WIND       PRES   REMARKS
BULLHEAD CITY  CLEAR     43   0  16 CALM      30.12F
KINGMAN        PTCLDY    23   2  40 CALM      30.07F
$$

AZZ004>008-015-016-018-211100-
NORTH CENTRAL ARIZONA

CITY           SKY/WX    TMP DP  RH WIND       PRES   REMARKS
GRAND CANYON   CLEAR      4  -1  80 NE6       30.03F WCI  -7
WILLIAMS       CLEAR     12   1  62 SE8       30.00R WCI   1
PRESCOTT       CLEAR     18   8  65 S3        30.05S
FLAGSTAFF      CLEAR      5   0  79 CALM      30.00F
PAYSON         CLEAR     25  10  54 CALM      30.04F
PAGE           CLEAR     26   7  44 CALM      30.10F
$$

AZZ009>014-017-211100-
NORTHEAST ARIZONA

CITY           SKY/WX    TMP DP  RH WIND       PRES   REMARKS
WINSLOW        PTCLDY    15  -3  44 SE3       30.08F
SAINT JOHNS    CLEAR     23  19  85 CALM      30.03F
WINDOW ROCK    MOCLDY    14  11  87 SW3       30.06F
SHOW LOW       MOCLDY    23  18  80 SW6       30.04F WCI  16
$$

AZZ540-542>544-546-548-211100-
GREATER PHOENIX AREA

CITY           SKY/WX    TMP DP  RH WIND       PRES   REMARKS
PHOENIX        CLEAR     43  23  45 E3        30.07F
BUCKEYE        CLEAR     34   7  32 N8        30.09F WCI  27
LUKE AFB       CLEAR     38  13  35 N3        30.06F
DEER VALLEY    CLEAR     39  16  39 N9        30.06F WCI  33
SCOTTSDALE     CLEAR     37  25  61 CALM      30.08F
MESA-GATEWAY   CLEAR     36  26  68 SE8       30.09F WCI  29
$$

AZZ539-553-211100-
SOUTHWEST MARICOPA COUNTY AND PINAL COUNTY

CITY           SKY/WX    TMP DP  RH WIND       PRES   REMARKS
CASA GRANDE      N/A     37  21  52 NE5       30.08F WCI  33
GILA BEND      FAIR      37  17  44 SE8       30.08F WCI  31
$$

AZZ503-504-507>509-211100-
SOUTHEAST ARIZONA

CITY           SKY/WX    TMP DP  RH WIND       PRES   REMARKS
TUCSON         CLEAR     38  33  82 CALM      30.07F
DAVIS-MONTHAN  PTCLDY    35  30  83 CALM      30.04F
NOGALES        PTCLDY    33  29  85 CALM      30.03F
SIERRA VISTA   CLOUDY    35  26  69 CALM      30.04F
DOUGLAS        CLOUDY    38  35  89 E5        30.04F WCI  34
SAFFORD        CLEAR     34  28  79 CALM      30.05F
$$

AZZ532-211100-
SOUTHWEST ARIZONA

CITY           SKY/WX    TMP DP  RH WIND       PRES   REMARKS
YUMA           CLEAR     42   9  25 CALM      30.10F
$$

CAZ041-043-047-048-061-525>527-560>570-211100-
SOUTHERN CALIFORNIA

CITY           SKY/WX    TMP DP  RH WIND       PRES   REMARKS
DOWNTOWN L.A.  MOCLDY    47  23  38 CALM      30.11F
L.A. AIRPORT   MOCLDY    48  25  40 NE6       30.12S
SAN DIEGO      CLEAR     48  26  42 CALM      30.15F
BURBANK        MOCLDY    44  23  43 CALM      30.10F
ONTARIO        PTCLDY    42  20  41 CALM      30.10F
RIVERSIDE      CLEAR     39  22  50 NE5       30.11F
PALM SPRINGS   CLEAR     44  20  38 NW7       30.12F
EL CENTRO NAS  CLEAR     37   7  28 MISG      30.12F
IMPERIAL       CLEAR     36  14  40 W7        30.10F WCI  30
BLYTHE         CLEAR     35  -4  18 NW7       30.11F WCI  29
NEEDLES        CLEAR     38  -4  16 W3        30.11F
$$

NVZ020-UTZ003-211100-
SOUTHERN NEVADA-UTAH

CITY           SKY/WX    TMP DP  RH WIND       PRES   REMARKS
LAS VEGAS      MOCLDY    41   7  24 CALM      30.10F
SALT LAKE CITY CLEAR     16   5  62 SE8       30.15F WCI   5
$$

NMZ009-TXZ055-211100-
NEW MEXICO-WEST TEXAS

CITY           SKY/WX    TMP DP  RH WIND       PRES   REMARKS
ALBUQUERQUE    MOCLDY    32  16  51 N5        30.10F WCI  27
EL PASO        CLEAR     45  36  70 NW5       30.04F
$$


........................KEY........................
SKY/WX - SKY CONDITION/WEATHER
TMP    - TEMPERATURE IN FAHRENHEIT
DP     - DEW POINT IN FAHRENHEIT
RH     - RELATIVE HUMIDITY IN PERCENT
WIND   - DIRECTION AND SPEED IN MILES PER HOUR (MPH)
VRB    - VARIABLE WIND DIRECTION
PRES   - MEAN SEA LEVEL PRESSURE IN INCHES OF MERCURY
         F - FALLING PRESSURE   R - RISING PRESSURE
         S - STEADY PRESSURE
VSB    - VISIBILITY IN MILES
HX     - HEAT INDEX IN FAHRENHEIT
WCI    - WIND CHILL INDEX IN FAHRENHEIT
TC     - TEMPERATURE IN CELSIUS WHICH IS ALSO KNOWN AS
         TEMPERATURE IN CENTIGRADE
AFB    - AIR FORCE BASE
         LUKE AFB IS LUKE AIR FORCE BASE
         DAVIS-MONTHAN IS DAVIS-MONTHAN AIR FORCE BASE
NAS    - NAVAL AIR STATION
         EL CENTRO NAS IS EL CENTRO NAVAL AIR STATION
N/A    - NOT AVAILABLE





USA.gov is the U.S. government's official web portal to all federal, state and local government web resources and services.